Weather History for El Paso, TX

Change the Weather History Date:

Saturday, March 29, 2014

  Actual Average Record
Temperature  
Mean Temperature 61 °F 60 °F  
Max Temperature 78 °F 74 °F 88 °F (1943)
Min Temperature 44 °F 46 °F 24 °F (1987)
Degree Days  
Heating Degree Days 4 6  
Month to date heating degree days 177 259  
Since 1 July heating degree days 1965 2362  
Cooling Degree Days 0 1  
Month to date cooling degree days 11 4  
Year to date cooling degree days 18 4  
Growing Degree Days 12 (Base 50)    
Moisture  
Dew Point 19 °F    
Average Humidity 18    
Maximum Humidity 26    
Minimum Humidity 10    
Precipitation  
Precipitation 0.00 in 0.01 in 0.28 in (1886)
Month to date precipitation 0.18 0.25  
Year to date precipitation 0.18 1.11  
Snow  
Snow 0.00 in - - ()
Month to date snowfall 0.0  
Since 1 July snowfall T  
Snow Depth 0.00 in    
Sea Level Pressure  
Sea Level Pressure 30.00 in    
Wind  
Wind Speed 5 mph (ESE)    
Max Wind Speed 15 mph    
Max Gust Speed 21 mph    
Visibility 10 miles    
Events      
T = Trace of Precipitation, MM = Missing Value Source: NWS Daily Summary

Daily Weather History Graph

Daily Weather History Graph

Search for Another Location

Airport:

Trip Planner

Search our weather history database for the weather conditions in past years. The results will help you decide how hot, cold, wet, or windy it might be!

Date:

Astronomy

Mar. 29, 2014 Rise Set
Actual Time 6:57 AM MDT 7:23 PM MDT
Civil Twilight 6:33 AM MDT 7:47 PM MDT
Nautical Twilight 6:04 AM MDT 8:16 PM MDT
Astronomical Twilight 5:35 AM MDT 8:45 PM MDT
Moon 6:04 AM MDT 6:33 PM MDT
Length of Visible Light 13h 14m
Length of Day
12h 25m
Waning Crescent, 1% of the Moon is Illuminated
Mar 29
Waning Crescent
Mar 30
New
Apr 7
First Quarter
Apr 15
Full
Apr 22
Last Quarter

Hourly Weather History & Observations

Time (MDT) Temp. Windchill Dew Point Humidity Pressure Visibility Wind Dir Wind Speed Gust Speed Precip Events Conditions
12:51 AM 52.0 °F - 12.9 °F 21% 30.02 in 10.0 mi ESE 6.9 mph - N/A   Partly Cloudy
1:51 AM 50.0 °F - 12.9 °F 23% 30.02 in 10.0 mi East 4.6 mph - N/A   Partly Cloudy
2:51 AM 51.1 °F - 14.0 °F 23% 30.02 in 10.0 mi WSW 3.5 mph - N/A   Partly Cloudy
3:51 AM 50.0 °F - 12.9 °F 23% 30.01 in 10.0 mi Calm Calm - N/A   Partly Cloudy
4:51 AM 48.0 °F - 14.0 °F 26% 30.01 in 10.0 mi South 3.5 mph - N/A   Partly Cloudy
5:51 AM 46.9 °F - 14.0 °F 27% 30.05 in 10.0 mi Calm Calm - N/A   Partly Cloudy
6:51 AM 46.0 °F 41.9 °F 12.9 °F 26% 30.08 in 10.0 mi NNE 8.1 mph - N/A   Partly Cloudy
7:51 AM 50.0 °F - 16.0 °F 26% 30.10 in 10.0 mi NNW 6.9 mph - N/A   Mostly Cloudy
8:51 AM 55.0 °F - 17.1 °F 23% 30.12 in 10.0 mi NE 8.1 mph - N/A   Mostly Cloudy
9:51 AM 59.0 °F - 24.1 °F 26% 30.12 in 10.0 mi East 6.9 mph - N/A   Mostly Cloudy
10:51 AM 63.0 °F - 26.1 °F 25% 30.11 in 10.0 mi Variable 3.5 mph - N/A   Mostly Cloudy
11:51 AM 69.1 °F - 23.0 °F 18% 30.09 in 10.0 mi ESE 11.5 mph - N/A   Mostly Cloudy
12:51 PM 71.1 °F - 23.0 °F 16% 30.07 in 10.0 mi Variable 4.6 mph - N/A   Mostly Cloudy
1:51 PM 73.9 °F - 23.0 °F 15% 30.03 in 10.0 mi ESE 6.9 mph - N/A   Mostly Cloudy
2:51 PM 75.0 °F - 21.9 °F 14% 29.98 in 10.0 mi South 6.9 mph - N/A   Overcast
3:51 PM 77.0 °F - 19.9 °F 12% 29.94 in 10.0 mi SSE 10.4 mph - N/A   Mostly Cloudy
4:51 PM 77.0 °F - 19.0 °F 11% 29.91 in 10.0 mi ESE 8.1 mph - N/A   Mostly Cloudy
5:51 PM 77.0 °F - 18.0 °F 11% 29.91 in 10.0 mi SSE 10.4 mph - N/A   Mostly Cloudy
6:51 PM 75.9 °F - 18.0 °F 11% 29.90 in 10.0 mi SE 10.4 mph - N/A   Mostly Cloudy
7:51 PM 72.0 °F - 18.0 °F 13% 29.90 in 10.0 mi SE 5.8 mph - N/A   Scattered Clouds
8:51 PM 71.1 °F - 18.0 °F 13% 29.91 in 10.0 mi Calm Calm - N/A   Scattered Clouds
9:51 PM 66.0 °F - 21.0 °F 18% 29.94 in 10.0 mi NNE 3.5 mph - N/A   Scattered Clouds
10:51 PM 64.9 °F - 21.9 °F 19% 29.94 in 10.0 mi NNW 4.6 mph - N/A   Scattered Clouds
11:51 PM 64.0 °F - 25.0 °F 23% 29.92 in 10.0 mi Calm Calm - N/A   Scattered Clouds